Weather in Mirpur Khas

Pakistan     25°31′14″N   69°00′48″E
temp.,
°C
wind,
m/s
gust,
m/s
humid.,
%
clouds,
%
prec.,
mm/h
press.,
hPa
HPBL,
m
22 may, sun
sun2223:00+31wsw1117520 0.0 997516
02:00+30wsw1017580 0.0 995474
05:00+29wsw814700 0.0 995373
08:00+32wsw89520 0.0 996430
11:00+43wsw45130 0.0 9951575
14:00+48w3740 0.0 9924815
17:00+43wsw1313180 0.0 9911466
20:00+34wsw1016420 0.0 993683
23 may, mon
mon2323:00+30wsw1017650 0.0 994614
02:00+29sw1014730 0.0 992389
05:00+28sw812780 0.0 993314
08:00+33sw810510 0.0 994460
11:00+42wsw67130 0.0 9941799
14:00+46wsw8860 0.0 9913291
17:00+46w8820 0.0 9904000
20:00+36wsw1017150 0.0 993666
24 may, tue
tue2423:00+31sw915360 0.0 995499
02:00+30sw712530 0.0 995379
05:00+29w34330 0.0 99655
08:00+33wnw44240 0.0 1000357
11:00+40nw44100 0.0 10001230
14:00+44nw3370 0.0 9993437
17:00+44wnw4460 0.0 9984052
20:00+36sw710250 0.0 1000292
25 may, wed
wed2523:00+31wsw812600 0.0 1002485
02:00+29sw711690 0.0 1002422
05:00+28sw610700 0.0 1002330
08:00+31sw79550 0.0 1004551
11:00+39sw77280 0.0 10041207
14:00+42sw87200 0.0 10012196
17:00+41sw98250 0.0 9992193
20:00+34sw911460 0.0 1001724
26 may, thu
thu2623:00+30sw913670 0.0 1002603
02:00+29sw915730 0.0 1000588
05:00+28sw914770 0.0 1000623
08:00+31sw1113630 0.0 1001700
11:00+38sw910340 0.0 10001194
14:00+43sw109220 0.0 9971660
17:00+40sw1010270 0.0 9961444
20:00+32sw1114580 0.0 998714